Location: Allen Fire Department Station 4
(33.1073°N, 96.6988°W)
Time: 10:48:13
(UTC+00:00)

CZ-4B R/B - Pass Details

Date: 03 December 2021
Orbit: 482 x 652 km, 97.9° (Epoch: 23 January)

Event Time Altitude Azimuth Distance (km) Brightness Sun altitude
Rises 12:01:18 0° 18° (NNE) 2,549 6.2 -15.0°
Reaches altitude 10° 12:03:24 10° 23° (NNE) 1,665 5.3 -14.5°
Maximum altitude 12:06:52 51° 101° (E) 616 3.5 -13.8°
Drops below altitude 10° 12:10:23 10° 178° (S) 1,682 5.6 -13.2°
Sets 12:12:30 0° 183° (S) 2,578 6.5 -12.7°
